Date String (YYYY-MM-DD hh:mm:ss) UTC,Instrument flags,absolute air pressure of the measurement (hPa),sample flow rate (lpm),inlet stack bypass flow (lpm),air temperature of the measurement (°C),ambient temperature measured by the external sensor (°C),aerosol sample conditioner tube jacket temperature (°C),OPC LED temperature (°C),internal box temperature (°C),relative humidity of the measurement (%),span deviation,mass concentration of particles derived from Lorenz-Mie calculation of OPC scattering (μg/m³),mass concentration of particles derived from Lorenz-Mie calculation of OPC scattering (μg/m³),mass concentration of particles derived from Lorenz-Mie calculation of OPC scattering (μg/m³)
DateTimeUTC,F1_M11,P_M11,Q1_M11,Q2_M11,T1_M11,T2_M11,T3_M11,T4_M11,T5_M11,U1_M11,ZSPAN_M11,X2_M11,X0_M11,X1_M11
2023-11-22 03:00:00,SystemResetWarning,0837.7,5.00,000.00,024.0,022.9,000.0,032.4,025.1,10.4,0000.0,0001.11,0001.55,0000.90
2023-11-22 03:01:00,SystemResetWarning,0837.6,5.00,000.00,023.9,022.9,000.0,032.4,025.1,10.4,0000.0,0001.12,0001.78,0000.90
2023-11-22 03:02:00,SystemResetWarning,0837.7,4.99,000.00,023.9,022.9,000.0,032.4,025.1,10.4,0000.0,0001.11,0001.87,0000.91
2023-11-22 03:03:00,SystemResetWarning,0837.7,5.00,000.00,023.9,022.9,000.0,032.4,025.1,10.4,0000.0,0001.09,0001.86,0000.91
2023-11-22 03:04:00,SystemResetWarning,0837.6,4.99,000.00,023.9,022.9,000.0,032.4,025.0,10.4,0000.0,0001.10,0001.88,0000.91
2023-11-22 03:05:00,SystemResetWarning,0837.7,5.00,000.00,023.9,022.9,000.0,032.4,025.1,10.4,0000.0,0001.11,0001.93,0000.91
2023-11-22 03:06:00,SystemResetWarning,0837.7,4.99,000.00,023.9,022.9,000.0,032.4,025.1,10.5,0000.0,0001.14,0002.04,0000.90
2023-11-22 03:07:00,SystemResetWarning,0837.7,5.00,000.00,023.9,022.9,000.0,032.3,025.1,10.5,0000.0,0001.15,0002.10,0000.89
2023-11-22 03:08:00,SystemResetWarning,0837.6,5.00,000.00,023.9,022.9,000.0,032.3,025.1,10.5,0000.0,0001.14,0002.08,0000.87
2023-11-22 03:09:00,SystemResetWarning,0837.7,5.01,000.00,023.9,022.9,000.0,032.3,025.1,10.5,0000.0,0001.11,0002.00,0000.85
2023-11-22 03:10:00,SystemResetWarning,0837.6,5.01,000.00,023.9,022.9,000.0,032.3,025.0,10.5,0000.0,0001.08,0001.95,0000.84
2023-11-22 03:11:00,SystemResetWarning,0837.6,5.00,000.00,023.9,022.8,000.0,032.3,025.1,10.5,0000.0,0001.01,0001.85,0000.80
2023-11-22 03:12:00,SystemResetWarning,0837.6,4.99,000.00,023.8,022.8,000.0,032.3,025.0,10.5,0000.0,0000.99,0001.63,0000.79
2023-11-22 03:13:00,SystemResetWarning,0837.6,4.99,000.00,023.8,022.8,000.0,032.3,025.0,10.5,0000.0,0000.95,0001.49,0000.77
2023-11-22 03:14:00,SystemResetWarning,0837.6,5.01,000.00,023.8,022.8,000.0,032.3,025.0,10.5,0000.0,0000.95,0001.51,0000.76
2023-11-22 03:15:00,SystemResetWarning,0837.6,5.01,000.00,023.8,022.8,000.0,032.3,025.0,10.4,0000.0,0000.97,0001.61,0000.76
2023-11-22 03:16:00,SystemResetWarning,0837.6,5.00,000.00,023.8,022.8,000.0,032.3,025.0,10.4,0000.0,0000.95,0001.59,0000.74
2023-11-22 03:17:00,SystemResetWarning,0837.6,5.00,000.00,023.8,022.8,000.0,032.2,025.0,10.4,0000.0,0000.93,0001.53,0000.74
2023-11-22 03:18:00,SystemResetWarning,0837.6,5.01,000.00,023.8,022.8,000.0,032.2,025.0,10.4,0000.0,0000.93,0001.50,0000.75
2023-11-22 03:19:00,SystemResetWarning,0837.5,4.99,000.00,023.8,022.7,000.0,032.2,025.0,10.4,0000.0,0000.91,0001.44,0000.75
2023-11-22 03:20:00,SystemResetWarning,0837.5,4.99,000.00,023.8,022.7,000.0,032.2,025.0,10.4,0000.0,0000.90,0001.61,0000.75
2023-11-22 03:21:00,SystemResetWarning,0837.5,5.00,000.00,023.8,022.7,000.0,032.2,025.0,10.4,0000.0,0000.95,0001.82,0000.75
2023-11-22 03:22:00,SystemResetWarning,0837.5,5.00,000.00,023.7,022.7,000.0,032.2,025.0,10.4,0000.0,0000.96,0001.84,0000.76
2023-11-22 03:23:00,SystemResetWarning,0837.5,5.00,000.00,023.7,022.7,000.0,032.2,024.9,10.4,0000.0,0000.98,0001.86,0000.77
2023-11-22 03:24:00,SystemResetWarning,0837.5,5.00,000.00,023.7,022.7,000.0,032.2,024.9,10.5,0000.0,0000.99,0001.84,0000.77
2023-11-22 03:25:00,SystemResetWarning,0837.5,5.00,000.00,023.7,022.7,000.0,032.2,024.9,10.5,0000.0,0000.98,0001.77,0000.77
2023-11-22 03:26:00,SystemResetWarning,0837.5,5.01,000.00,023.7,022.7,000.0,032.2,024.9,10.5,0000.0,0000.97,0001.70,0000.78
2023-11-22 03:27:00,SystemResetWarning,0837.5,5.01,000.00,023.7,022.7,000.0,032.2,024.9,10.5,0000.0,0000.98,0001.69,0000.79
2023-11-22 03:28:00,SystemResetWarning,0837.5,5.00,000.00,023.7,022.7,000.0,032.2,024.9,10.4,0000.0,0000.96,0001.62,0000.79
2023-11-22 03:29:00,SystemResetWarning,0837.5,4.99,000.00,023.7,022.7,000.0,032.1,024.9,10.5,0000.0,0000.96,0002.79,0000.79
2023-11-22 03:30:00,SystemResetWarning,0837.5,4.99,000.00,023.7,022.7,000.0,032.1,024.8,10.4,0000.0,0000.98,0003.33,0000.79
2023-11-22 03:31:00,SystemResetWarning,0837.5,5.00,000.00,023.6,022.7,000.0,032.1,024.8,10.4,0000.0,0001.00,0003.21,0000.79
2023-11-22 03:32:00,SystemResetWarning,0837.5,5.01,000.00,023.6,022.7,000.0,032.1,024.8,10.5,0000.0,0000.95,0003.09,0000.79
2023-11-22 03:33:00,SystemResetWarning,0837.5,5.00,000.00,023.6,022.6,000.0,032.1,024.8,10.5,0000.0,0000.93,0003.05,0000.78
2023-11-22 03:34:00,SystemResetWarning,0837.5,5.01,000.00,023.6,022.6,000.0,032.1,024.8,10.5,0000.0,0000.91,0003.00,0000.78
2023-11-22 03:35:00,SystemResetWarning,0837.5,5.01,000.00,023.6,022.6,000.0,032.1,024.8,10.5,0000.0,0000.92,0003.38,0000.77
2023-11-22 03:36:00,SystemResetWarning,0837.5,4.99,000.00,023.6,022.6,000.0,032.0,024.7,10.5,0000.0,0000.93,0004.24,0000.77
2023-11-22 03:37:00,SystemResetWarning,0837.4,5.00,000.00,023.6,022.6,000.0,032.0,024.7,10.5,0000.0,0000.92,0005.67,0000.76
2023-11-22 03:38:00,SystemResetWarning,0837.4,4.99,000.00,023.6,022.6,000.0,032.0,024.7,10.5,0000.0,0000.90,0005.63,0000.75
2023-11-22 03:39:00,SystemResetWarning,0837.4,5.01,000.00,023.5,022.6,000.0,032.0,024.7,10.5,0000.0,0000.90,0005.86,0000.75
2023-11-22 03:40:00,SystemResetWarning,0837.4,5.01,000.00,023.5,022.5,000.0,032.0,024.7,10.5,0000.0,0000.90,0004.83,0000.75
2023-11-22 03:41:00,SystemResetWarning,0837.4,5.00,000.00,023.5,022.5,000.0,032.0,024.6,10.5,0000.0,0000.88,0004.33,0000.75
2023-11-22 03:42:00,SystemResetWarning,0837.4,5.00,000.00,023.5,022.5,000.0,032.0,024.6,10.5,0000.0,0000.86,0004.31,0000.75
2023-11-22 03:43:00,SystemResetWarning,0837.4,5.00,000.00,023.5,022.5,000.0,032.0,024.6,10.5,0000.0,0000.84,0004.15,0000.74
2023-11-22 03:44:00,SystemResetWarning,0837.4,4.99,000.00,023.5,022.5,000.0,031.9,024.6,10.5,0000.0,0000.86,0004.18,0000.75
2023-11-22 03:45:00,SystemResetWarning,0837.3,5.00,000.00,023.4,022.5,000.0,031.9,024.6,10.5,0000.0,0000.90,0004.36,0000.75
2023-11-22 03:46:00,SystemResetWarning,0837.4,5.00,000.00,023.4,022.5,000.0,031.9,024.6,10.5,0000.0,0000.91,0004.10,0000.76
2023-11-22 03:47:00,SystemResetWarning,0837.3,5.00,000.00,023.4,022.4,000.0,031.9,024.6,10.5,0000.0,0000.89,0003.24,0000.75
2023-11-22 03:48:00,SystemResetWarning,0837.3,5.00,000.00,023.4,022.5,000.0,031.9,024.6,10.5,0000.0,0000.89,0001.80,0000.75
2023-11-22 03:49:00,SystemResetWarning,0837.3,5.00,000.00,023.4,022.5,000.0,031.9,024.6,10.5,0000.0,0000.89,0001.81,0000.75
2023-11-22 03:50:00,SystemResetWarning,0837.2,5.01,000.00,023.4,022.4,000.0,031.9,024.6,10.5,0000.0,0000.91,0001.64,0000.74
2023-11-22 03:51:00,SystemResetWarning,0837.4,5.01,000.00,023.4,022.4,000.0,031.9,024.6,10.5,0000.0,0000.90,0001.54,0000.73
2023-11-22 03:52:00,SystemResetWarning,0837.3,5.01,000.00,023.4,022.4,000.0,031.8,024.6,10.6,0000.0,0000.88,0001.48,0000.72
2023-11-22 03:53:00,SystemResetWarning,0837.3,5.01,000.00,023.4,022.4,000.0,031.8,024.5,10.5,0000.0,0000.87,0001.47,0000.72
2023-11-22 03:54:00,SystemResetWarning,0837.2,5.00,000.00,023.4,022.4,000.0,031.8,024.6,10.5,0000.0,0000.88,0001.49,0000.73
2023-11-22 03:55:00,SystemResetWarning,0837.2,4.99,000.00,023.4,022.4,000.0,031.8,024.5,10.5,0000.0,0000.87,0001.53,0000.72
2023-11-22 03:56:00,SystemResetWarning,0837.2,5.00,000.00,023.3,022.4,000.0,031.8,024.5,10.5,0000.0,0000.85,0001.50,0000.71
2023-11-22 03:57:00,SystemResetWarning,0837.2,5.00,000.00,023.3,022.4,000.0,031.8,024.5,10.5,0000.0,0000.84,0001.47,0000.71
2023-11-22 03:58:00,SystemResetWarning,0837.2,5.00,000.00,023.3,022.3,000.0,031.8,024.5,10.5,0000.0,0000.86,0001.44,0000.72
2023-11-22 03:59:00,SystemResetWarning,0837.2,5.00,000.00,023.3,022.3,000.0,031.8,024.5,10.5,0000.0,0000.87,0002.04,0000.72
